Location: Dortmund
(51.5019°N, 7.6520°E)
Time: 02:40:15
(UTC+02:00)

ISS - Pass Details

Date: 29 March 2019
Orbit: 408 x 410 km, 51.6° (Epoch: 23 April)

Event Time Altitude Azimuth Distance (km) Brightness Sun altitude
Rises 20:03:10 0° 266° (W) 2,337 1.4 -10.8°
Reaches altitude 10° 20:05:16 10° 267° (W) 1,475 0.2 -11.1°
Maximum altitude 20:08:34 86° 357° (N) 415 -3.8 -11.6°
Enters shadow 20:10:54 18° 86° (E) 1,081 -2.2 -11.9°
